Preview of NWS' New Version of Forecast
This preview is not operational and should not be used for support decisions.

Regional Weather Roundup (RWR)

Issued by National Weather Service (NWS)

                            
000
ASUS44 KJAN 211310
RWRMS 

MISSISSIPPI HOURLY WEATHER ROUNDUP
NATIONAL WEATHER SERVICE JACKSON MS
700 AM CST THU FEB 21 2019

NOTE: "FAIR: INDICATES FEW OR NO CLOUDS BELOW 12,000 FEET WITH NO
SIGNIFICANT WEATHER AND/OR OBSTRUCTIONS TO VISIBILITY.

MSZ001>002-007>008-010>013-018>021-025>028-034>036-211400-
NORTHWEST MISSISSIPPI
  
CITY           SKY/WX    TMP DP  RH WIND       PRES   REMARKS
BATESVILLE     FAIR      30  30 100 CALM      30.14S                  
CLARKSDALE     CLEAR     36  36 100 NE6       30.16R FOG     WCI  31  
CLEVELAND      FAIR      40  40 100 NE8       30.12S WCI  35          
GREENWOOD      CLOUDY    43  41  93 NE6       30.11F                  
GREENVILLE     FAIR      41  38  89 NE8       30.10R                  
OLIVE BRANCH   FOG       32  32 100 NE3       30.16R VSB 1/2          
OXFORD         FOG       36  34  93 N5        30.16R VSB<1/4 WCI  32  
TUNICA         FOG       32  32 100 NE3       30.18R VSB 1            
WINONA         CLOUDY    44  43  99 NE7       30.12R                  
$$

MSZ003>006-009-014>017-022>024-029>033-037>039-211400-
NORTHEAST MISSISSIPPI
  
CITY           SKY/WX    TMP DP  RH WIND       PRES   REMARKS
ABERDEEN       CLOUDY    45  45 100 N6        30.13R                  
COLUMBUS AFB   CLOUDY    47  44  89 N7        30.09F                  
CORINTH        CLOUDY    43  41  93 NE8G15    30.16R                  
GOLDN TRIANGLE MOCLDY    46  45  96 N7        30.10S                  
STARKVILLE     CLOUDY    45  43  93 CALM      30.11R                  
TUPELO         CLOUDY    43  40  89 N13       30.12R                  
$$

MSZ040-058-211400-
CENTRAL MISSISSIPPI
  
CITY           SKY/WX    TMP DP  RH WIND       PRES   REMARKS
JACKSON INTL   CLOUDY    49  46  90 N6        30.07R                  
JACKSON HAWKNS CLOUDY    48  46  93 VRB5      30.07R THUNDER          
MADISON        CLOUDY    45  45 100 CALM      30.07S                  
MERIDIAN KEY   CLOUDY    53  49  86 N7        30.08R                  
MERIDIAN NAS   CLOUDY    51  49  92 CALM      30.09S                  
RAYMOND        LGT RAIN  46  46 100 VRB5      30.06S                  
VICKSBURG VKS  CLOUDY    48  45  87 NE8G14    30.06F                  
$$

MSZ059>079-211400-
SOUTH MISSISSIPPI
  
CITY           SKY/WX    TMP DP  RH WIND       PRES   REMARKS
HATTIESBURG    CLOUDY    56  55  97 N3        30.06R FOG              
LAUREL         CLOUDY    53  53 100 NE5       30.06R                  
MCCOMB         CLOUDY    53  51  93 VRB6      30.02S FOG              
NATCHEZ        CLOUDY    49  47  93 NE10      30.03F                  
PINE BELT      CLOUDY    54  53  97 NE6       30.06R                  
$$

MSZ080>082-211400-
COASTAL MISSISSIPPI
  
CITY           SKY/WX    TMP DP  RH WIND       PRES   REMARKS
BAY ST LOUIS   FOG       64  64 100 CALM      30.02  VSB 1/2          
BILOXI         CLOUDY    67  67 100 E3        30.01R FOG              
PASCAGOULA     CLOUDY    70  67  90 CALM      30.01S FOG              
GULFPORT       FOG       67  67 100 CALM      30.00R VSB 3/4          
$$

LAZ007>009-015>016-023>026-211400-
NORTHEAST LOUISIANA
  
CITY           SKY/WX    TMP DP  RH WIND       PRES   REMARKS
BASTROP        CLOUDY    45  44  98 NE5       30.08R                  
TALLULAH/VBURG LGT RAIN  47  43  86 NE10G22   30.07F                  
VIDALIA        CLOUDY    49  47  93 N9        30.03R                  
$$